Orbital Elements at Epoch 2459200.5 (2020-Dec-17.0) TDB
Reference: JPL 34 (heliocentric ecliptic J2000)
Element | Value | Uncertainty (1-sigma) | Units |
e | .1447579925179529 | 2.967e-08 | |
a | 2.684353173540498 | 1.0713e-08 | au |
q | 2.29577159692958 | 7.8651e-08 | au |
i | 12.58788465487107 | 4.5649e-06 | deg |
node | 359.3971580104196 | 1.5564e-05 | deg |
peri | 68.61960196256526 | 2.433e-05 | deg |
M | 103.5184704017758 | 1.6665e-05 | deg |
tp | 2458738.573100114526 (2019-Sep-12.07310011) | 7.4369e-05 | TDB |
period | 1606.415582778143 4.40 | 9.6163e-06 2.633e-08 | d yr |
n | .2241014117762817 | 1.3415e-09 | deg/d |
Q | 3.072934750151417 | 1.2263e-08 | au |
|
| | Orbit Determination Parameters
Additional Information
|